Tracking 28125 objects as of 3-Oct-2023
HD Live streaming from Space Station
objects crossing your sky now

STARLINK-5274

Track STARLINK-5274 now!
10-day predictions
STARLINK-5274 is classified as:


NORAD ID: 55395
Int'l Code: 2023-014E
Perigee: 577.3 km
Apogee: 581.1 km
Inclination: 70.0 °
Period: 96.1 minutes
Semi major axis: 6950 km
RCS: Unknown
Launch date: January 31, 2023
Source: United States (US)
Launch site: AIR FORCE WESTERN TEST RANGE (AFWTR)
Your satellite tracking list
Your tracking list is empty




NASA's NSSDC Master Catalog

Two Line Element Set (TLE):
1 55395U 23014E   23275.88364916  .00000420  00000-0  43013-4 0  9992
2 55395  70.0002 145.3339 0002716 264.4003  95.6846 14.98322712 37985
Source of the keplerian elements: AFSPC